sat.trackr.live / text

‹ back to catalog

NISAR

NORAD 65053 · 2025-163A

PAYLOAD ACTIVE UNKNOWN

§ Identity

Operator
Country
IND
Launch date
2025-07-30
Launch site
SRILR
Launch vehicle
Mass (kg)
RCS (m²)

External: N2YO · Heavens-Above · Gunter

§ Orbital elements

Epoch: 2026-09-21T22:16:18.542496Z

Period
99.83 min
Inclination
98.4055°
Eccentricity
0.0001238
Mean motion
14.42504880 rev/d
Perigee alt
749.4 km
Apogee alt
751.1 km
Semi-major
7,128.4 km
B*
4.9634e-5
RAAN
91.1898°
Arg perigee
88.6082°
Mean anomaly
271.5249°
Rev number
6,033

§ Raw data

NISAR1 65053U 25163A   26264.92799239  .00000121  00000+0  49634-4 0  99992 65053  98.4055  91.1898 0001238  88.6082 271.5249 14.42504880 60332

JSON: /api/v1/satellites/65053 · /tle

For live sub-satellite position, see the globe view (requires WebGL).

§ Visibility from observer

Set your observer location to see the next 7 days of passes ≥ 10°. The values pass through the URL so the page stays shareable.

No JS? Fill the form by hand. The geolocation button needs JavaScript.

§ Radio — SatNOGS DB

ModeDescriptionDownlinkUplink
FM S-band telemetry 2.246 GHz

1 transmitter · refreshed weekly from db.satnogs.org